Regional Weather Roundup
Issued by NWS

Home | Current Version | Previous Version | Text Only | Print | Product List | Glossary On
Versions: 1 2 3 4 5 6 7 8 9 10 11 12 13 14 15 16 17 18 19 20 21 22 23 24 25 26 27 28 29 30 31 32 33 34 35 36 37 38 39 40 41 42 43 44 45 46 47 48 49 50
712
ASUS45 KTFX 092210
RWRMT
MONTANA REGIONAL WEATHER ROUNDUP
NATIONAL WEATHER SERVICE GREAT FALLS MT
300 PM MST TUE FEB 09 2016

NOTE: "FAIR" INDICATES FEW OR NO CLOUDS BELOW 12000 FEET WITH NO
SIGNIFICANT WEATHER AND/OR OBSTRUCTIONS TO VISIBILITY.

MTZ001>007-043-092300-
WEST OF THE DIVIDE

CITY           SKY/WX    TMP DP  RH WIND       PRES   REMARKS
KALISPELL      MOSUNNY   44  29  55 CALM      30.35F
MISSOULA       MOSUNNY   37  30  75 CALM      30.36F
BUTTE          SUNNY     36  28  73 SE5       30.35F
MULLAN PASS    SUNNY     49  30  48 VRB3      30.34F
ANACONDA         N/A     43  30  61 N5        30.34F
DEER LODGE       N/A     43  30  61 CALM      30.35F
HAMILTON         N/A     46  32  57 N6        30.33F
LIBBY            N/A     46  28  49 CALM      30.36
$$

MTZ008-052>055-092300-
SOUTHWEST MONTANA

CITY           SKY/WX    TMP DP  RH WIND       PRES   REMARKS
BOZEMAN        SUNNY     40  29  64 E3        30.34F
DILLON         SUNNY     42  29  59 S14       30.35F
ENNIS          SUNNY     50  27  40 S20       30.40F
TWIN BRIDGES     N/A     41  27  57 S7        30.30
$$

MTZ009-010-012-014-046-048-049-054-092300-
EAST SLOPES AND CENTRAL MONTANA

CITY           SKY/WX    TMP DP  RH WIND       PRES   REMARKS
CUT BANK       MOSUNNY   59  20  22 W28G33    30.13F
GREAT FALLS    CLOUDY    61  26  26 SW23G29   30.15F
MALMSTROM AFB  CLOUDY    63  25  24 SW16G26   30.15F
HELENA         SUNNY     50  33  52 NW5       30.30F
CHOTEAU          N/A     70   5   8 NW8       30.17S
CONRAD           N/A     66  22  19 SW17      30.14F
$$

MTZ011-013-016-021-045-047-050-051-092300-
NORTH CENTRAL MONTANA

CITY           SKY/WX    TMP DP  RH WIND       PRES   REMARKS
HAVRE          CLOUDY    57  29  34 SW12      30.12F
LEWISTOWN      CLOUDY    49  31  49 W5        30.17F
N BAR RANCH      N/A     59  21  23 W9        30.19F
CHINOOK          N/A     59  27  29 W9        30.11F
$$

MTZ017>020-022>027-061-062-092300-
NORTHEAST MONTANA

CITY           SKY/WX    TMP DP  RH WIND       PRES   REMARKS
GLASGOW        SUNNY     49  33  54 W12       30.08F
JORDAN           N/A     54  35  48 W8        30.11F
SIDNEY         CLOUDY    43  23  45 CALM      30.11F
WOLF POINT     SUNNY     49  32  52 CALM      30.09F
PLENTYWOOD       N/A     36  23  60 E6        30.10S WCI  31
POPLAR           N/A     45  28  53 CALM      30.10F
$$

MTZ028>42-056>058-092300-
SOUTHCENTRAL AND SOUTHEAST MONTANA

CITY           SKY/WX    TMP DP  RH WIND       PRES   REMARKS
BAKER          MOSUNNY   49  28  44 W12       30.12F
BILLINGS       MOSUNNY   61  24  24 SW18      30.17F
LIVINGSTON     CLOUDY    58  18  21 W22       30.27F
MILES CITY     SUNNY     56  31  38 NW13      30.12F
FORSYTH          N/A     63  27  25 W17       30.13F
LAUREL           N/A     60  25  26 S8        30.16F
ROUNDUP          N/A     64  23  21 W6        30.06F
$$

REGIONAL REPORTS...DAKOTAS

CITY           SKY/WX    TMP DP  RH WIND       PRES   REMARKS
WILLISTON      CLOUDY    38  23  55 CALM      30.13F
MINOT          CLOUDY    37  17  44 NW7       30.12F WCI  32
DICKINSON      CLOUDY    39  21  48 NW9       30.09F
BEACH          CLOUDY    45  28  53 NW8       30.13F
CROSBY         CLOUDY    32  23  69 N3        30.15F
TIOGA          CLOUDY    32  27  80 W6        30.16F WCI  26
WATFORD CITY   CLOUDY    36  23  60 NW5       30.14R
BISMARCK       CLOUDY    41  16  36 VRB5      30.14F
GRAND FORKS    CLOUDY    11   3  70 N14       30.28S WCI  -5
FARGO          CLOUDY    14   5  67 N14       30.26S WCI  -1
BUFFALO SD       N/A     47  30  51 NW15      30.04F
RAPID CITY     CLOUDY    53  29  39 NW21G30   30.11F
$$

REGIONAL REPORTS...WYOMING/IDAHO/WASHINGTON

CITY           SKY/WX    TMP DP  RH WIND       PRES   REMARKS
GILLETTE       SUNNY     52  30  43 NW17      30.19S
SHERIDAN       SUNNY     59  26  28 NW17      30.19F
BUFFALO WY     SUNNY     56  30  37 VRB5      30.22F
CODY           SUNNY     55  27  33 NE12      30.25F
YELLOWSTONE LA   N/A     34  20  56 CALM      30.47F
IDAHO FALLS    CLOUDY    28  24  85 N6        30.52F WCI  22
SALMON         CLOUDY    25  18  74 CALM      30.51F
BOISE          SUNNY     42  31  64 CALM      30.49F
SPOKANE        MOSUNNY   47  35  63 N6        30.29F
$$

REGIONAL REPORTS...ALBERTA

CITY           SKY/WX    TMP DP  RH WIND       PRES   REMARKS
EDMONTON       SUNNY     48  27  43 W6        29.96F
CALGARY        MOSUNNY   61  16  17 W12G21    30.03F
LETHBRIDGE     MOSUNNY   57  21  24 W24G35    30.06F
MEDICINE HAT   PTSUNNY   55  30  38 SW10      30.06F
WATERTON GATE    N/A     50  25  37 SW25G38     N/A
CARDSTON         N/A     57  14  18 W16G25      N/A
MILK RIVER       N/A     63  21  20 W17         N/A
$$

REGIONAL REPORTS...SASKATCHEWAN

CITY           SKY/WX    TMP DP  RH WIND       PRES   REMARKS
SWIFT CURRENT  SUNNY     50  32  50 NW15      30.02F
REGINA         PTSUNNY   30  25  80 SE12      30.09F WCI  21
SASKATOON      PTSUNNY   30  27  86 SE13      30.05F WCI  20
CYPRESS HILLS    N/A     50  28  43 W5          N/A
VAL MARIE        N/A     55  30  38 NW16        N/A
ASSINIBOIA       N/A     43  30  61 SW8         N/A
$$




USA.gov is the U.S. government's official web portal to all federal, state and local government web resources and services.